Time,TemperatureF,DewpointF,PressureIn,WindDirection,WindDirectionDegrees,WindSpeedMPH,WindSpeedGustMPH,Humidity,HourlyPrecipIn,Conditions,Clouds,dailyrainin,SoftwareType,DateUTC
2013-10-14 00:23:00,66.0,-99.9,-100.00,East,91,3.0,4.0,-999,-99.99,,,-99.99,,2013-10-14 05:23:00,
2013-10-14 00:34:00,66.0,-99.9,-100.00,East,91,3.0,4.0,-999,-99.99,,,-99.99,,2013-10-14 05:34:00,
2013-10-14 01:30:00,65.0,-99.9,-100.00,NE,56,2.0,4.0,-999,-99.99,,,-99.99,,2013-10-14 06:30:00,
2013-10-14 02:22:00,65.0,-99.9,-100.00,NE,56,2.0,4.0,-999,-99.99,,,-99.99,,2013-10-14 07:22:00,
2013-10-14 02:30:00,65.0,-99.9,-100.00,East,101,1.0,12.0,-999,-99.99,,,-99.99,,2013-10-14 07:30:00,
2013-10-14 03:22:00,65.0,-99.9,-100.00,East,101,1.0,12.0,-999,-99.99,,,-99.99,,2013-10-14 08:22:00,
2013-10-14 04:20:00,65.0,-99.9,-100.00,ESE,119,9.0,9.0,-999,-99.99,,,-99.99,,2013-10-14 09:20:00,
2013-10-14 05:13:00,65.0,-99.9,-100.00,ESE,119,9.0,9.0,-999,-99.99,,,-99.99,,2013-10-14 10:13:00,
2013-10-14 05:43:00,65.0,-99.9,-100.00,NNW,331,6.0,6.0,-999,-99.99,,,-99.99,,2013-10-14 10:43:00,
2013-10-14 05:53:00,65.0,-99.9,-100.00,SE,146,4.0,4.0,-999,-99.99,,,-99.99,,2013-10-14 10:53:00,
2013-10-14 06:02:00,65.0,-99.9,-100.00,SE,146,4.0,4.0,-999,-99.99,,,-99.99,,2013-10-14 11:02:00,
2013-10-14 06:52:00,65.0,-99.9,-100.00,East,101,4.0,4.0,-999,-99.99,,,-99.99,,2013-10-14 11:52:00,
2013-10-14 07:02:00,65.0,-99.9,-100.00,East,101,4.0,4.0,-999,-99.99,,,-99.99,,2013-10-14 12:02:00,
2013-10-14 10:10:00,65.0,-99.9,-100.00,SE,125,10.0,12.0,-999,-99.99,,,-99.99,,2013-10-14 15:10:00,
2013-10-14 10:54:00,65.0,-99.9,-100.00,SE,125,10.0,12.0,-999,-99.99,,,-99.99,,2013-10-14 15:54:00,
2013-10-14 11:03:00,65.0,-99.9,-100.00,SE,125,10.0,12.0,-999,-99.99,,,-99.99,,2013-10-14 16:03:00,
2013-10-14 11:53:00,67.0,-99.9,-100.00,SSE,165,3.0,6.0,-999,-99.99,,,-99.99,,2013-10-14 16:53:00,
2013-10-14 12:02:00,67.0,-99.9,-100.00,SSE,165,3.0,6.0,-999,-99.99,,,-99.99,,2013-10-14 17:02:00,
2013-10-14 12:12:00,67.0,-99.9,-100.00,SSE,165,3.0,6.0,-999,-99.99,,,-99.99,,2013-10-14 17:12:00,
2013-10-14 13:00:00,76.0,-99.9,-100.00,SW,235,0.0,7.0,-999,-99.99,,,-99.99,,2013-10-14 18:00:00,
2013-10-14 13:13:00,72.0,-99.9,-100.00,SSE,156,6.0,9.0,-999,-99.99,,,-99.99,,2013-10-14 18:13:00,
2013-10-14 13:52:00,76.0,-99.9,-100.00,SW,235,0.0,7.0,-999,-99.99,,,-99.99,,2013-10-14 18:52:00,
2013-10-14 16:12:00,80.0,-99.9,-100.00,SW,217,2.0,17.0,-999,-99.99,,,-99.99,,2013-10-14 21:12:00,
2013-10-14 16:22:00,80.0,-99.9,-100.00,SW,217,2.0,17.0,-999,-99.99,,,-99.99,,2013-10-14 21:22:00,
2013-10-14 17:13:00,79.0,-99.9,-100.00,WNW,301,11.0,15.0,-999,-99.99,,,-99.99,,2013-10-14 22:13:00,
2013-10-14 17:24:00,78.0,-99.9,-100.00,West,280,10.0,15.0,-999,-99.99,,,-99.99,,2013-10-14 22:24:00,
2013-10-14 17:33:00,78.0,-99.9,-100.00,West,280,10.0,15.0,-999,-99.99,,,-99.99,,2013-10-14 22:33:00,
2013-10-14 17:40:00,76.0,-99.9,-100.00,WNW,297,0.0,14.0,-999,-99.99,,,-99.99,,2013-10-14 22:40:00,
2013-10-14 18:22:00,76.0,-99.9,-100.00,WNW,297,0.0,14.0,-999,-99.99,,,-99.99,,2013-10-14 23:22:00,
2013-10-14 18:34:00,76.0,-99.9,-100.00,WNW,297,0.0,14.0,-999,-99.99,,,-99.99,,2013-10-14 23:34:00,
2013-10-14 20:42:00,64.0,-99.9,-100.00,NW,312,10.0,10.0,-999,-99.99,,,-99.99,,2013-10-15 01:42:00,
2013-10-14 21:50:00,62.0,-99.9,-100.00,NE,40,2.0,3.0,-999,-99.99,,,-99.99,,2013-10-15 02:50:00,
2013-10-14 22:44:00,62.0,-99.9,-100.00,NE,40,2.0,3.0,-999,-99.99,,,-99.99,,2013-10-15 03:44:00,